Time,TemperatureF,DewpointF,PressureIn,WindDirection,WindDirectionDegrees,WindSpeedMPH,WindSpeedGustMPH,Humidity,HourlyPrecipIn,Conditions,Clouds,dailyrainin,SoftwareType,DateUTC
2013-01-28 00:00:00,47.0,35.1,30.35,WNW,297,4.0,11.0,63,0.00,,---,0.00,VWS V14.01,2013-01-28 05:00:00,
2013-01-28 00:05:00,46.9,35.0,30.34,NNW,340,3.0,8.0,63,0.00,,---,0.00,VWS V14.01,2013-01-28 05:05:00,
2013-01-28 00:10:00,46.8,34.9,30.35,NE,37,6.0,8.0,63,0.00,,---,0.00,VWS V14.01,2013-01-28 05:10:00,
2013-01-28 00:15:00,46.7,34.8,30.34,NNW,336,3.0,11.0,63,0.00,,---,0.00,VWS V14.01,2013-01-28 05:15:00,
2013-01-28 00:20:00,46.7,34.8,30.35,NNW,338,3.0,12.0,63,0.00,,---,0.00,VWS V14.01,2013-01-28 05:20:00,
2013-01-28 00:25:00,46.6,34.7,30.35,ENE,63,3.0,6.0,63,0.00,,---,0.00,VWS V14.01,2013-01-28 05:25:00,
2013-01-28 00:30:00,46.7,34.4,30.36,East,84,4.0,15.0,62,0.00,,---,0.00,VWS V14.01,2013-01-28 05:30:00,
2013-01-28 00:35:00,46.6,34.7,30.36,North,352,2.0,10.0,63,0.00,,---,0.00,VWS V14.01,2013-01-28 05:35:00,
2013-01-28 00:40:00,46.5,34.6,30.36,ENE,66,2.0,5.0,63,0.00,,---,0.00,VWS V14.01,2013-01-28 05:40:00,
2013-01-28 00:45:00,46.3,34.4,30.36,NNW,348,5.0,7.0,63,0.00,,---,0.00,VWS V14.01,2013-01-28 05:45:00,
2013-01-28 00:50:00,46.4,34.5,30.36,NE,49,7.0,10.0,63,0.00,,---,0.00,VWS V14.01,2013-01-28 05:50:00,
2013-01-28 00:55:00,46.4,34.5,30.36,ENE,68,6.0,12.0,63,0.00,,---,0.00,VWS V14.01,2013-01-28 05:55:00,
2013-01-28 01:00:00,46.3,34.4,30.36,North,357,7.0,11.0,63,0.00,,---,0.00,VWS V14.01,2013-01-28 06:00:00,
2013-01-28 01:05:00,46.2,34.3,30.36,East,84,2.0,11.0,63,0.00,,---,0.00,VWS V14.01,2013-01-28 06:05:00,
2013-01-28 01:10:00,46.2,34.3,30.36,ENE,75,5.0,10.0,63,0.00,,---,0.00,VWS V14.01,2013-01-28 06:10:00,
2013-01-28 01:15:00,46.1,34.2,30.36,ENE,70,7.0,10.0,63,0.00,,---,0.00,VWS V14.01,2013-01-28 06:15:00,
2013-01-28 01:20:00,46.0,34.1,30.35,East,83,4.0,10.0,63,0.00,,---,0.00,VWS V14.01,2013-01-28 06:20:00,
2013-01-28 01:25:00,46.0,33.7,30.36,NE,52,7.0,11.0,62,0.00,,---,0.00,VWS V14.01,2013-01-28 06:25:00,
2013-01-28 01:30:00,46.0,34.1,30.36,NNE,30,7.0,11.0,63,0.00,,---,0.00,VWS V14.01,2013-01-28 06:30:00,
2013-01-28 01:35:00,46.0,33.7,30.37,NE,56,7.0,10.0,62,0.00,,---,0.00,VWS V14.01,2013-01-28 06:35:00,
2013-01-28 01:40:00,46.0,34.1,30.36,NNE,25,3.0,8.0,63,0.00,,---,0.00,VWS V14.01,2013-01-28 06:40:00,
2013-01-28 01:45:00,45.9,33.6,30.36,North,354,4.0,11.0,62,0.00,,---,0.00,VWS V14.01,2013-01-28 06:45:00,
2013-01-28 01:50:00,45.8,33.9,30.37,NE,50,6.0,7.0,63,0.00,,---,0.00,VWS V14.01,2013-01-28 06:50:00,
2013-01-28 01:55:00,45.8,33.9,30.36,ENE,69,3.0,11.0,63,0.00,,---,0.00,VWS V14.01,2013-01-28 06:55:00,
2013-01-28 02:00:00,45.7,33.8,30.36,NE,47,3.0,11.0,63,0.00,,---,0.00,VWS V14.01,2013-01-28 07:00:00,
2013-01-28 02:05:00,45.6,33.8,30.36,NE,56,3.0,10.0,63,0.00,,---,0.00,VWS V14.01,2013-01-28 07:05:00,
2013-01-28 02:10:00,45.5,33.7,30.36,East,84,3.0,9.0,63,0.00,,---,0.00,VWS V14.01,2013-01-28 07:10:00,
2013-01-28 02:15:00,45.6,33.8,30.37,NE,47,4.0,9.0,63,0.00,,---,0.00,VWS V14.01,2013-01-28 07:15:00,
2013-01-28 02:20:00,45.6,33.8,30.37,ENE,65,4.0,10.0,63,0.00,,---,0.00,VWS V14.01,2013-01-28 07:20:00,
2013-01-28 02:25:00,45.6,33.8,30.37,East,80,3.0,7.0,63,0.00,,---,0.00,VWS V14.01,2013-01-28 07:25:00,
2013-01-28 02:30:00,45.5,33.7,30.36,ENE,75,2.0,8.0,63,0.00,,---,0.00,VWS V14.01,2013-01-28 07:30:00,
2013-01-28 02:35:00,45.4,33.6,30.36,NNE,12,4.0,10.0,63,0.00,,---,0.00,VWS V14.01,2013-01-28 07:35:00,
2013-01-28 02:40:00,45.3,33.5,30.36,NNE,27,7.0,9.0,63,0.00,,---,0.00,VWS V14.01,2013-01-28 07:40:00,
2013-01-28 02:45:00,45.3,33.9,30.36,NE,41,8.0,12.0,64,0.00,,---,0.00,VWS V14.01,2013-01-28 07:45:00,
2013-01-28 02:50:00,45.2,33.8,30.36,North,353,5.0,11.0,64,0.00,,---,0.00,VWS V14.01,2013-01-28 07:50:00,
2013-01-28 02:55:00,45.2,33.8,30.36,NE,49,2.0,10.0,64,0.00,,---,0.00,VWS V14.01,2013-01-28 07:55:00,
2013-01-28 03:00:00,45.1,33.7,30.36,NNE,31,7.0,7.0,64,0.00,,---,0.00,VWS V14.01,2013-01-28 08:00:00,
2013-01-28 03:05:00,45.1,33.7,30.36,NNE,33,5.0,10.0,64,0.00,,---,0.00,VWS V14.01,2013-01-28 08:05:00,
2013-01-28 03:10:00,45.1,33.7,30.35,NNE,22,4.0,12.0,64,0.00,,---,0.00,VWS V14.01,2013-01-28 08:10:00,
2013-01-28 03:15:00,45.1,33.7,30.35,ESE,113,8.0,9.0,64,0.00,,---,0.00,VWS V14.01,2013-01-28 08:15:00,
2013-01-28 03:20:00,45.1,33.3,30.35,ENE,60,11.0,15.0,63,0.00,,---,0.00,VWS V14.01,2013-01-28 08:20:00,
2013-01-28 03:25:00,45.2,33.8,30.35,ENE,65,4.0,13.0,64,0.00,,---,0.00,VWS V14.01,2013-01-28 08:25:00,
2013-01-28 03:30:00,45.1,33.7,30.35,ENE,69,5.0,13.0,64,0.00,,---,0.00,VWS V14.01,2013-01-28 08:30:00,
2013-01-28 03:35:00,45.1,33.7,30.35,NE,44,5.0,10.0,64,0.00,,---,0.00,VWS V14.01,2013-01-28 08:35:00,
2013-01-28 03:40:00,44.9,33.9,30.35,ENE,65,4.0,8.0,65,0.00,,---,0.00,VWS V14.01,2013-01-28 08:40:00,
2013-01-28 03:45:00,44.8,33.8,30.35,North,8,1.0,10.0,65,0.00,,---,0.00,VWS V14.01,2013-01-28 08:45:00,
2013-01-28 03:50:00,44.9,33.9,30.35,ENE,68,2.0,9.0,65,0.00,,---,0.00,VWS V14.01,2013-01-28 08:50:00,
2013-01-28 03:55:00,44.9,33.9,30.35,ENE,74,3.0,7.0,65,0.00,,---,0.00,VWS V14.01,2013-01-28 08:55:00,
2013-01-28 04:00:00,44.9,33.9,30.36,NE,52,1.0,6.0,65,0.00,,---,0.00,VWS V14.01,2013-01-28 09:00:00,
2013-01-28 04:05:00,44.9,33.9,30.35,NE,45,8.0,8.0,65,0.00,,---,0.00,VWS V14.01,2013-01-28 09:05:00,
2013-01-28 04:10:00,44.9,33.9,30.35,North,1,5.0,9.0,65,0.00,,---,0.00,VWS V14.01,2013-01-28 09:10:00,
2013-01-28 04:15:00,44.9,33.9,30.35,ENE,59,2.0,10.0,65,0.00,,---,0.00,VWS V14.01,2013-01-28 09:15:00,
2013-01-28 04:20:00,44.9,33.9,30.35,NE,37,3.0,9.0,65,0.00,,---,0.00,VWS V14.01,2013-01-28 09:20:00,
2013-01-28 04:25:00,44.8,33.4,30.35,ENE,66,2.0,11.0,64,0.00,,---,0.00,VWS V14.01,2013-01-28 09:25:00,
2013-01-28 04:30:00,44.8,33.8,30.35,East,86,3.0,7.0,65,0.00,,---,0.00,VWS V14.01,2013-01-28 09:30:00,
2013-01-28 04:35:00,44.8,33.4,30.35,NNW,327,2.0,9.0,64,0.00,,---,0.00,VWS V14.01,2013-01-28 09:35:00,
2013-01-28 04:40:00,44.7,33.3,30.35,NE,53,1.0,9.0,64,0.00,,---,0.00,VWS V14.01,2013-01-28 09:40:00,
2013-01-28 04:45:00,44.7,33.7,30.36,NNW,340,2.0,8.0,65,0.00,,---,0.00,VWS V14.01,2013-01-28 09:45:00,
2013-01-28 04:50:00,44.7,33.3,30.35,NNW,346,3.0,9.0,64,0.00,,---,0.00,VWS V14.01,2013-01-28 09:50:00,
2013-01-28 04:55:00,44.7,33.3,30.35,NNW,329,5.0,8.0,64,0.00,,---,0.00,VWS V14.01,2013-01-28 09:55:00,
2013-01-28 05:00:00,44.7,33.7,30.35,ENE,70,2.0,7.0,65,0.00,,---,0.00,VWS V14.01,2013-01-28 10:00:00,
2013-01-28 05:05:00,44.6,33.6,30.36,NE,34,2.0,6.0,65,0.00,,---,0.00,VWS V14.01,2013-01-28 10:05:00,
2013-01-28 05:10:00,44.6,33.2,30.35,ENE,71,4.0,8.0,64,0.00,,---,0.00,VWS V14.01,2013-01-28 10:10:00,
2013-01-28 05:15:00,44.6,33.2,30.35,NNE,13,4.0,6.0,64,0.00,,---,0.00,VWS V14.01,2013-01-28 10:15:00,
2013-01-28 05:20:00,44.5,33.5,30.35,NW,323,1.0,6.0,65,0.00,,---,0.00,VWS V14.01,2013-01-28 10:20:00,
2013-01-28 05:25:00,44.6,33.2,30.35,NE,37,2.0,4.0,64,0.00,,---,0.00,VWS V14.01,2013-01-28 10:25:00,
2013-01-28 05:30:00,44.6,33.2,30.35,NNE,25,3.0,5.0,64,0.00,,---,0.00,VWS V14.01,2013-01-28 10:30:00,
2013-01-28 05:35:00,44.6,33.6,30.35,NNW,346,1.0,3.0,65,0.00,,---,0.00,VWS V14.01,2013-01-28 10:35:00,
2013-01-28 05:40:00,44.6,33.2,30.36,ENE,66,4.0,4.0,64,0.00,,---,0.00,VWS V14.01,2013-01-28 10:40:00,
2013-01-28 05:45:00,44.6,33.6,30.36,NNE,29,3.0,4.0,65,0.00,,---,0.00,VWS V14.01,2013-01-28 10:45:00,
2013-01-28 05:50:00,44.6,33.6,30.36,ENE,59,3.0,4.0,65,0.00,,---,0.00,VWS V14.01,2013-01-28 10:50:00,
2013-01-28 05:55:00,44.6,33.6,30.36,NNE,26,4.0,6.0,65,0.00,,---,0.00,VWS V14.01,2013-01-28 10:55:00,
2013-01-28 06:00:00,44.6,33.6,30.36,North,11,1.0,6.0,65,0.00,,---,0.00,VWS V14.01,2013-01-28 11:00:00,
2013-01-28 06:05:00,44.6,33.6,30.35,North,359,2.0,4.0,65,0.00,,---,0.00,VWS V14.01,2013-01-28 11:05:00,
2013-01-28 06:10:00,44.5,33.5,30.35,NW,326,1.0,4.0,65,0.00,,---,0.00,VWS V14.01,2013-01-28 11:10:00,
2013-01-28 06:15:00,44.4,33.4,30.35,NNW,339,5.0,6.0,65,0.00,,---,0.00,VWS V14.01,2013-01-28 11:15:00,
2013-01-28 06:20:00,44.5,33.9,30.35,North,1,0.0,8.0,66,0.00,,---,0.00,VWS V14.01,2013-01-28 11:20:00,
2013-01-28 06:25:00,44.5,33.5,30.35,North,360,2.0,6.0,65,0.00,,---,0.00,VWS V14.01,2013-01-28 11:25:00,
2013-01-28 06:30:00,44.4,33.4,30.35,NNW,343,2.0,6.0,65,0.00,,---,0.00,VWS V14.01,2013-01-28 11:30:00,
2013-01-28 06:35:00,44.3,33.3,30.35,NE,56,3.0,6.0,65,0.00,,---,0.00,VWS V14.01,2013-01-28 11:35:00,
2013-01-28 06:40:00,44.3,33.7,30.35,NE,52,1.0,6.0,66,0.00,,---,0.00,VWS V14.01,2013-01-28 11:40:00,
2013-01-28 06:45:00,44.3,33.7,30.35,NE,39,0.0,4.0,66,0.00,,---,0.00,VWS V14.01,2013-01-28 11:45:00,
2013-01-28 06:50:00,44.4,33.8,30.35,NNE,18,4.0,8.0,66,0.00,,---,0.00,VWS V14.01,2013-01-28 11:50:00,
2013-01-28 06:55:00,44.4,33.8,30.35,NE,41,2.0,6.0,66,0.00,,---,0.00,VWS V14.01,2013-01-28 11:55:00,
2013-01-28 07:00:00,44.5,33.9,30.35,NE,50,2.0,7.0,66,0.00,,---,0.00,VWS V14.01,2013-01-28 12:00:00,
2013-01-28 07:05:00,44.6,33.6,30.35,NNW,335,1.0,6.0,65,0.00,,---,0.00,VWS V14.01,2013-01-28 12:05:00,
2013-01-28 07:10:00,44.7,33.7,30.35,NE,35,5.0,6.0,65,0.00,,---,0.00,VWS V14.01,2013-01-28 12:10:00,
2013-01-28 07:15:00,44.7,33.7,30.35,ENE,77,0.0,5.0,65,0.00,,---,0.00,VWS V14.01,2013-01-28 12:15:00,
2013-01-28 07:20:00,44.6,33.6,30.35,NNW,332,0.0,4.0,65,0.00,,---,0.00,VWS V14.01,2013-01-28 12:20:00,
2013-01-28 07:25:00,44.7,34.0,30.35,NNE,23,3.0,5.0,66,0.00,,---,0.00,VWS V14.01,2013-01-28 12:25:00,
2013-01-28 07:30:00,44.7,33.7,30.35,NE,37,1.0,6.0,65,0.00,,---,0.00,VWS V14.01,2013-01-28 12:30:00,
2013-01-28 07:35:00,44.7,33.7,30.35,ENE,57,1.0,6.0,65,0.00,,---,0.00,VWS V14.01,2013-01-28 12:35:00,
2013-01-28 07:40:00,44.7,34.0,30.35,NE,37,2.0,5.0,66,0.00,,---,0.00,VWS V14.01,2013-01-28 12:40:00,
2013-01-28 07:45:00,44.7,34.0,30.35,NW,323,1.0,7.0,66,0.00,,---,0.00,VWS V14.01,2013-01-28 12:45:00,
2013-01-28 07:50:00,44.7,34.0,30.35,NE,52,1.0,7.0,66,0.00,,---,0.00,VWS V14.01,2013-01-28 12:50:00,
2013-01-28 07:55:00,44.8,33.8,30.35,NNE,17,6.0,10.0,65,0.00,,---,0.00,VWS V14.01,2013-01-28 12:55:00,
2013-01-28 08:00:00,44.8,33.8,30.35,ENE,67,3.0,7.0,65,0.00,,---,0.00,VWS V14.01,2013-01-28 13:00:00,
2013-01-28 08:05:00,44.9,33.9,30.35,NE,50,5.0,10.0,65,0.00,,---,0.00,VWS V14.01,2013-01-28 13:05:00,
2013-01-28 08:10:00,44.9,33.9,30.35,NE,51,2.0,8.0,65,0.00,,---,0.00,VWS V14.01,2013-01-28 13:10:00,
2013-01-28 08:15:00,45.0,34.0,30.35,ENE,66,6.0,8.0,65,0.00,,---,0.00,VWS V14.01,2013-01-28 13:15:00,
2013-01-28 08:20:00,45.0,34.0,30.36,ENE,58,1.0,6.0,65,0.00,,---,0.00,VWS V14.01,2013-01-28 13:20:00,
2013-01-28 08:25:00,45.0,34.0,30.36,North,8,4.0,5.0,65,0.00,,---,0.00,VWS V14.01,2013-01-28 13:25:00,
2013-01-28 08:30:00,44.9,33.9,30.36,ENE,65,2.0,6.0,65,0.00,,---,0.00,VWS V14.01,2013-01-28 13:30:00,
2013-01-28 08:35:00,45.0,34.3,30.35,NNE,33,4.0,6.0,66,0.00,,---,0.00,VWS V14.01,2013-01-28 13:35:00,
2013-01-28 08:40:00,45.0,34.3,30.35,NE,49,3.0,6.0,66,0.00,,---,0.00,VWS V14.01,2013-01-28 13:40:00,
2013-01-28 08:45:00,45.0,34.3,30.35,ENE,66,2.0,7.0,66,0.00,,---,0.00,VWS V14.01,2013-01-28 13:45:00,
2013-01-28 08:50:00,44.9,34.2,30.35,NNW,332,3.0,7.0,66,0.00,,---,0.00,VWS V14.01,2013-01-28 13:50:00,
2013-01-28 08:55:00,45.0,34.7,30.35,ENE,62,3.0,9.0,67,0.00,,---,0.00,VWS V14.01,2013-01-28 13:55:00,
2013-01-28 09:00:00,45.0,34.7,30.35,ENE,59,7.0,11.0,67,0.00,,---,0.00,VWS V14.01,2013-01-28 14:00:00,
2013-01-28 09:05:00,45.1,34.8,30.35,NNW,348,5.0,8.0,67,0.00,,---,0.00,VWS V14.01,2013-01-28 14:05:00,
2013-01-28 09:10:00,45.1,34.8,30.35,ENE,76,4.0,11.0,67,0.00,,---,0.00,VWS V14.01,2013-01-28 14:10:00,
2013-01-28 09:15:00,45.1,35.2,30.35,ENE,65,8.0,10.0,68,0.00,,---,0.00,VWS V14.01,2013-01-28 14:15:00,
2013-01-28 09:20:00,45.2,35.3,30.35,NW,323,6.0,10.0,68,0.00,,---,0.00,VWS V14.01,2013-01-28 14:20:00,
2013-01-28 09:25:00,45.2,35.3,30.35,ENE,61,4.0,10.0,68,0.00,,---,0.00,VWS V14.01,2013-01-28 14:25:00,
2013-01-28 09:30:00,45.2,35.7,30.35,NE,52,3.0,9.0,69,0.00,,---,0.00,VWS V14.01,2013-01-28 14:30:00,
2013-01-28 09:35:00,45.3,35.7,30.35,ENE,58,8.0,8.0,69,0.00,,---,0.00,VWS V14.01,2013-01-28 14:35:00,
2013-01-28 09:40:00,45.4,35.8,30.35,ENE,76,1.0,8.0,69,0.00,,---,0.00,VWS V14.01,2013-01-28 14:40:00,
2013-01-28 09:45:00,45.5,35.9,30.35,North,5,5.0,7.0,69,0.00,,---,0.00,VWS V14.01,2013-01-28 14:45:00,
2013-01-28 09:50:00,45.5,35.9,30.35,ESE,108,3.0,10.0,69,0.00,,---,0.00,VWS V14.01,2013-01-28 14:50:00,
2013-01-28 09:55:00,45.6,36.4,30.35,ENE,62,3.0,11.0,70,0.00,,---,0.00,VWS V14.01,2013-01-28 14:55:00,
2013-01-28 10:00:00,45.7,36.5,30.35,ENE,78,3.0,9.0,70,0.00,,---,0.00,VWS V14.01,2013-01-28 15:00:00,
2013-01-28 10:05:00,45.8,37.0,30.35,NE,53,0.0,11.0,71,0.00,,---,0.00,VWS V14.01,2013-01-28 15:05:00,
2013-01-28 10:10:00,45.9,37.0,30.35,NE,36,4.0,9.0,71,0.00,,---,0.00,VWS V14.01,2013-01-28 15:10:00,
2013-01-28 10:15:00,45.9,37.0,30.35,NNW,345,1.0,12.0,71,0.00,,---,0.00,VWS V14.01,2013-01-28 15:15:00,
2013-01-28 10:20:00,45.9,37.0,30.35,NW,309,2.0,11.0,71,0.00,,---,0.00,VWS V14.01,2013-01-28 15:20:00,
2013-01-28 10:25:00,46.0,37.5,30.35,NNW,346,3.0,12.0,72,0.00,,---,0.00,VWS V14.01,2013-01-28 15:25:00,
2013-01-28 10:30:00,46.1,37.6,30.35,ENE,58,7.0,12.0,72,0.00,,---,0.00,VWS V14.01,2013-01-28 15:30:00,
2013-01-28 10:35:00,46.1,37.9,30.35,NNW,330,3.0,9.0,73,0.00,,---,0.00,VWS V14.01,2013-01-28 15:35:00,
2013-01-28 10:40:00,46.3,38.5,30.35,NE,50,6.0,10.0,74,0.00,,---,0.00,VWS V14.01,2013-01-28 15:40:00,
2013-01-28 10:45:00,46.3,38.5,30.35,NNE,20,5.0,13.0,74,0.00,,---,0.00,VWS V14.01,2013-01-28 15:45:00,
2013-01-28 10:50:00,46.4,38.6,30.35,NW,320,2.0,13.0,74,0.00,,---,0.00,VWS V14.01,2013-01-28 15:50:00,
2013-01-28 10:55:00,46.5,39.0,30.35,NNW,340,3.0,11.0,75,0.00,,---,0.00,VWS V14.01,2013-01-28 15:55:00,
2013-01-28 11:00:00,46.5,39.4,30.35,NNE,32,4.0,13.0,76,0.00,,---,0.00,VWS V14.01,2013-01-28 16:00:00,
2013-01-28 11:05:00,46.6,39.8,30.35,WNW,300,5.0,13.0,77,0.00,,---,0.00,VWS V14.01,2013-01-28 16:05:00,
2013-01-28 11:10:00,46.7,39.9,30.35,NNW,341,2.0,11.0,77,0.00,,---,0.00,VWS V14.01,2013-01-28 16:10:00,
2013-01-28 11:15:00,46.7,40.2,30.35,NE,34,9.0,14.0,78,0.00,,---,0.00,VWS V14.01,2013-01-28 16:15:00,
2013-01-28 11:20:00,46.8,40.3,30.35,ENE,76,8.0,15.0,78,0.00,,---,0.00,VWS V14.01,2013-01-28 16:20:00,
2013-01-28 11:25:00,46.9,40.4,30.35,NE,50,4.0,11.0,78,0.00,,---,0.00,VWS V14.01,2013-01-28 16:25:00,
2013-01-28 11:30:00,47.0,40.8,30.35,ENE,76,7.0,14.0,79,0.00,,---,0.00,VWS V14.01,2013-01-28 16:30:00,
2013-01-28 11:35:00,47.0,40.8,30.35,NNW,340,7.0,15.0,79,0.00,,---,0.00,VWS V14.01,2013-01-28 16:35:00,
2013-01-28 11:40:00,47.1,40.9,30.36,NE,39,3.0,11.0,79,0.00,,---,0.00,VWS V14.01,2013-01-28 16:40:00,
2013-01-28 11:45:00,47.1,40.9,30.36,ENE,75,6.0,14.0,79,0.00,,---,0.00,VWS V14.01,2013-01-28 16:45:00,
2013-01-28 11:50:00,47.2,41.4,30.35,NNE,19,9.0,13.0,80,0.00,,---,0.00,VWS V14.01,2013-01-28 16:50:00,
2013-01-28 11:55:00,47.3,41.5,30.35,ENE,58,9.0,11.0,80,0.00,,---,0.00,VWS V14.01,2013-01-28 16:55:00,
2013-01-28 12:00:00,47.3,41.5,30.34,NNE,27,7.0,14.0,80,0.00,,---,0.00,VWS V14.01,2013-01-28 17:00:00,
2013-01-28 12:05:00,47.5,41.3,30.33,North,352,3.0,14.0,79,0.00,,---,0.00,VWS V14.01,2013-01-28 17:05:00,
2013-01-28 12:10:00,47.7,41.5,30.33,NW,325,1.0,13.0,79,0.00,,---,0.00,VWS V14.01,2013-01-28 17:10:00,
2013-01-28 12:15:00,47.8,41.6,30.33,North,352,5.0,15.0,79,0.00,,---,0.00,VWS V14.01,2013-01-28 17:15:00,
2013-01-28 12:20:00,48.0,41.8,30.34,ENE,63,8.0,12.0,79,0.00,,---,0.00,VWS V14.01,2013-01-28 17:20:00,
2013-01-28 12:25:00,48.0,41.8,30.34,ENE,60,8.0,11.0,79,0.00,,---,0.00,VWS V14.01,2013-01-28 17:25:00,
2013-01-28 12:30:00,48.1,41.9,30.34,NW,318,6.0,10.0,79,0.00,,---,0.00,VWS V14.01,2013-01-28 17:30:00,
2013-01-28 12:35:00,48.3,42.1,30.34,North,358,6.0,11.0,79,0.00,,---,0.00,VWS V14.01,2013-01-28 17:35:00,
2013-01-28 12:40:00,48.5,42.3,30.34,North,349,7.0,13.0,79,0.00,,---,0.00,VWS V14.01,2013-01-28 17:40:00,
2013-01-28 12:45:00,48.6,42.4,30.34,North,6,4.0,10.0,79,0.00,,---,0.00,VWS V14.01,2013-01-28 17:45:00,
2013-01-28 12:50:00,48.9,42.7,30.34,NNE,29,5.0,13.0,79,0.00,,---,0.00,VWS V14.01,2013-01-28 17:50:00,
2013-01-28 12:55:00,49.1,42.9,30.34,NNE,22,6.0,11.0,79,0.00,,---,0.00,VWS V14.01,2013-01-28 17:55:00,
2013-01-28 13:00:00,49.4,43.2,30.33,NE,38,4.0,10.0,79,0.00,,---,0.00,VWS V14.01,2013-01-28 18:00:00,
2013-01-28 13:05:00,49.9,43.3,30.33,NNE,15,7.0,10.0,78,0.00,,---,0.00,VWS V14.01,2013-01-28 18:05:00,
2013-01-28 13:10:00,50.1,43.2,30.33,NE,36,9.0,11.0,77,0.00,,---,0.00,VWS V14.01,2013-01-28 18:10:00,
2013-01-28 13:15:00,50.4,43.5,30.33,East,87,3.0,11.0,77,0.00,,---,0.00,VWS V14.01,2013-01-28 18:15:00,
2013-01-28 13:20:00,50.9,43.6,30.32,NNE,32,5.0,11.0,76,0.00,,---,0.00,VWS V14.01,2013-01-28 18:20:00,
2013-01-28 13:25:00,51.3,44.0,30.32,NE,45,11.0,11.0,76,0.00,,---,0.00,VWS V14.01,2013-01-28 18:25:00,
2013-01-28 13:30:00,51.5,44.2,30.32,NE,49,5.0,16.0,76,0.00,,---,0.00,VWS V14.01,2013-01-28 18:30:00,
2013-01-28 13:35:00,51.8,44.5,30.32,NNE,12,6.0,11.0,76,0.00,,---,0.00,VWS V14.01,2013-01-28 18:35:00,
2013-01-28 13:40:00,52.1,44.4,30.31,East,79,7.0,15.0,75,0.00,,---,0.00,VWS V14.01,2013-01-28 18:40:00,
2013-01-28 13:45:00,52.4,44.7,30.31,NNW,347,8.0,13.0,75,0.00,,---,0.00,VWS V14.01,2013-01-28 18:45:00,
2013-01-28 13:50:00,52.9,45.2,30.30,NE,52,2.0,11.0,75,0.00,,---,0.00,VWS V14.01,2013-01-28 18:50:00,
2013-01-28 13:55:00,53.6,45.5,30.30,NNW,332,4.0,11.0,74,0.00,,---,0.00,VWS V14.01,2013-01-28 18:55:00,
2013-01-28 14:00:00,54.4,45.6,30.30,NW,304,5.0,11.0,72,0.00,,---,0.00,VWS V14.01,2013-01-28 19:00:00,
2013-01-28 14:05:00,54.7,45.9,30.30,NW,319,13.0,14.0,72,0.00,,---,0.00,VWS V14.01,2013-01-28 19:05:00,
2013-01-28 14:10:00,54.2,45.8,30.29,NE,39,6.0,13.0,73,0.00,,---,0.00,VWS V14.01,2013-01-28 19:10:00,
2013-01-28 14:15:00,54.2,45.8,30.29,North,358,6.0,10.0,73,0.00,,---,0.00,VWS V14.01,2013-01-28 19:15:00,
2013-01-28 14:20:00,54.1,45.7,30.29,NNE,19,6.0,11.0,73,0.00,,---,0.00,VWS V14.01,2013-01-28 19:20:00,
2013-01-28 14:25:00,54.1,46.0,30.28,North,351,9.0,13.0,74,0.00,,---,0.00,VWS V14.01,2013-01-28 19:25:00,
2013-01-28 14:30:00,54.7,46.2,30.28,NNE,22,10.0,14.0,73,0.00,,---,0.00,VWS V14.01,2013-01-28 19:30:00,
2013-01-28 14:35:00,54.8,46.3,30.27,NNW,338,2.0,13.0,73,0.00,,---,0.00,VWS V14.01,2013-01-28 19:35:00,
2013-01-28 14:40:00,55.3,46.8,30.27,WNW,292,9.0,13.0,73,0.00,,---,0.00,VWS V14.01,2013-01-28 19:40:00,
2013-01-28 14:45:00,55.3,46.4,30.27,NNW,340,1.0,12.0,72,0.00,,---,0.00,VWS V14.01,2013-01-28 19:45:00,
2013-01-28 14:50:00,55.2,46.7,30.26,NW,325,5.0,8.0,73,0.00,,---,0.00,VWS V14.01,2013-01-28 19:50:00,
2013-01-28 14:55:00,55.0,46.5,30.26,East,92,4.0,13.0,73,0.00,,---,0.00,VWS V14.01,2013-01-28 19:55:00,
2013-01-28 15:00:00,55.0,46.5,30.26,East,95,3.0,9.0,73,0.00,,---,0.00,VWS V14.01,2013-01-28 20:00:00,
2013-01-28 15:05:00,54.9,46.4,30.26,ENE,60,3.0,9.0,73,0.00,,---,0.00,VWS V14.01,2013-01-28 20:05:00,
2013-01-28 15:10:00,55.1,46.6,30.26,NW,322,5.0,10.0,73,0.00,,---,0.00,VWS V14.01,2013-01-28 20:10:00,
2013-01-28 15:15:00,55.3,46.8,30.25,ENE,63,4.0,8.0,73,0.00,,---,0.00,VWS V14.01,2013-01-28 20:15:00,
2013-01-28 15:20:00,55.1,46.6,30.25,ENE,59,8.0,13.0,73,0.00,,---,0.00,VWS V14.01,2013-01-28 20:20:00,
2013-01-28 15:25:00,55.0,46.5,30.25,ENE,60,1.0,10.0,73,0.00,,---,0.00,VWS V14.01,2013-01-28 20:25:00,
2013-01-28 15:30:00,55.1,47.0,30.25,NE,36,2.0,7.0,74,0.00,,---,0.00,VWS V14.01,2013-01-28 20:30:00,
2013-01-28 15:35:00,55.2,47.1,30.25,NE,51,5.0,9.0,74,0.00,,---,0.00,VWS V14.01,2013-01-28 20:35:00,
2013-01-28 15:40:00,55.3,47.2,30.25,NNE,13,4.0,9.0,74,0.00,,---,0.00,VWS V14.01,2013-01-28 20:40:00,
2013-01-28 15:45:00,55.5,47.4,30.24,NW,319,1.0,8.0,74,0.00,,---,0.00,VWS V14.01,2013-01-28 20:45:00,
2013-01-28 15:50:00,55.9,47.4,30.24,NNE,17,4.0,9.0,73,0.00,,---,0.00,VWS V14.01,2013-01-28 20:50:00,
2013-01-28 15:55:00,56.6,48.1,30.24,NE,36,3.0,7.0,73,0.00,,---,0.00,VWS V14.01,2013-01-28 20:55:00,
2013-01-28 16:00:00,56.7,47.8,30.24,ENE,59,7.0,12.0,72,0.00,,---,0.00,VWS V14.01,2013-01-28 21:00:00,
2013-01-28 16:05:00,56.7,47.8,30.24,NE,37,4.0,13.0,72,0.00,,---,0.00,VWS V14.01,2013-01-28 21:05:00,
2013-01-28 16:10:00,56.8,48.2,30.24,NW,314,2.0,10.0,73,0.00,,---,0.00,VWS V14.01,2013-01-28 21:10:00,
2013-01-28 16:15:00,56.9,48.3,30.24,ENE,59,1.0,10.0,73,0.00,,---,0.00,VWS V14.01,2013-01-28 21:15:00,
2013-01-28 16:20:00,57.0,48.1,30.24,WNW,293,5.0,11.0,72,0.00,,---,0.00,VWS V14.01,2013-01-28 21:20:00,
2013-01-28 16:25:00,57.1,48.5,30.24,NNW,334,3.0,10.0,73,0.00,,---,0.00,VWS V14.01,2013-01-28 21:25:00,
2013-01-28 16:30:00,57.3,48.4,30.23,NW,311,3.0,9.0,72,0.00,,---,0.00,VWS V14.01,2013-01-28 21:30:00,
2013-01-28 16:35:00,57.3,48.7,30.23,ENE,63,4.0,10.0,73,0.00,,---,0.00,VWS V14.01,2013-01-28 21:35:00,
2013-01-28 16:40:00,57.2,48.6,30.23,WNW,298,1.0,8.0,73,0.00,,---,0.00,VWS V14.01,2013-01-28 21:40:00,
2013-01-28 16:45:00,57.3,48.7,30.23,NW,308,0.0,5.0,73,0.00,,---,0.00,VWS V14.01,2013-01-28 21:45:00,
2013-01-28 16:50:00,57.5,48.9,30.23,NW,324,2.0,4.0,73,0.00,,---,0.00,VWS V14.01,2013-01-28 21:50:00,
2013-01-28 16:55:00,57.6,49.0,30.23,NNW,332,3.0,8.0,73,0.00,,---,0.00,VWS V14.01,2013-01-28 21:55:00,
2013-01-28 17:00:00,57.5,48.9,30.23,West,267,1.0,6.0,73,0.00,,---,0.00,VWS V14.01,2013-01-28 22:00:00,
2013-01-28 17:05:00,57.6,49.0,30.23,NNW,333,2.0,5.0,73,0.00,,---,0.00,VWS V14.01,2013-01-28 22:05:00,
2013-01-28 17:10:00,57.7,49.1,30.23,NW,325,1.0,4.0,73,0.00,,---,0.00,VWS V14.01,2013-01-28 22:10:00,
2013-01-28 17:15:00,57.9,49.3,30.23,NNW,334,0.0,5.0,73,0.00,,---,0.00,VWS V14.01,2013-01-28 22:15:00,
2013-01-28 17:20:00,58.2,49.6,30.23,NW,316,1.0,4.0,73,0.00,,---,0.00,VWS V14.01,2013-01-28 22:20:00,
2013-01-28 17:25:00,58.3,49.7,30.23,NNW,338,3.0,7.0,73,0.00,,---,0.00,VWS V14.01,2013-01-28 22:25:00,
2013-01-28 17:30:00,58.7,49.7,30.22,NE,45,6.0,6.0,72,0.00,,---,0.00,VWS V14.01,2013-01-28 22:30:00,
2013-01-28 17:35:00,58.8,49.8,30.22,NE,43,6.0,12.0,72,0.00,,---,0.00,VWS V14.01,2013-01-28 22:35:00,
2013-01-28 17:40:00,58.8,49.4,30.22,NNW,332,4.0,11.0,71,0.00,,---,0.00,VWS V14.01,2013-01-28 22:40:00,
2013-01-28 17:45:00,58.4,49.4,30.22,NW,315,4.0,7.0,72,0.00,,---,0.00,VWS V14.01,2013-01-28 22:45:00,
2013-01-28 17:50:00,58.0,49.4,30.22,WNW,285,2.0,9.0,73,0.00,,---,0.00,VWS V14.01,2013-01-28 22:50:00,
2013-01-28 17:55:00,57.8,49.2,30.23,NE,36,3.0,9.0,73,0.00,,---,0.00,VWS V14.01,2013-01-28 22:55:00,
2013-01-28 18:00:00,57.9,49.3,30.23,NNW,348,2.0,7.0,73,0.00,,---,0.00,VWS V14.01,2013-01-28 23:00:00,
2013-01-28 18:05:00,57.8,49.6,30.23,NW,304,3.0,5.0,74,0.00,,---,0.00,VWS V14.01,2013-01-28 23:05:00,
2013-01-28 18:10:00,57.6,49.4,30.22,NNE,13,1.0,4.0,74,0.00,,---,0.00,VWS V14.01,2013-01-28 23:10:00,
2013-01-28 18:15:00,57.4,49.2,30.22,NW,311,1.0,6.0,74,0.00,,---,0.00,VWS V14.01,2013-01-28 23:15:00,
2013-01-28 18:20:00,57.3,49.5,30.22,NNW,347,0.0,3.0,75,0.00,,---,0.00,VWS V14.01,2013-01-28 23:20:00,
2013-01-28 18:25:00,57.3,49.5,30.22,NNW,345,8.0,8.0,75,0.00,,---,0.00,VWS V14.01,2013-01-28 23:25:00,
2013-01-28 18:30:00,57.1,49.3,30.22,NE,56,9.0,9.0,75,0.00,,---,0.00,VWS V14.01,2013-01-28 23:30:00,
2013-01-28 18:35:00,56.9,49.4,30.23,NE,34,6.0,13.0,76,0.00,,---,0.00,VWS V14.01,2013-01-28 23:35:00,
2013-01-28 18:40:00,56.6,49.1,30.23,NNW,340,8.0,10.0,76,0.00,,---,0.00,VWS V14.01,2013-01-28 23:40:00,
2013-01-28 18:45:00,56.3,48.8,30.23,NE,34,3.0,8.0,76,0.00,,---,0.00,VWS V14.01,2013-01-28 23:45:00,
2013-01-28 18:50:00,56.1,49.0,30.22,NNW,340,2.0,7.0,77,0.00,,---,0.00,VWS V14.01,2013-01-28 23:50:00,
2013-01-28 18:55:00,55.9,48.8,30.23,NE,35,3.0,9.0,77,0.00,,---,0.00,VWS V14.01,2013-01-28 23:55:00,
2013-01-28 19:00:00,55.7,49.0,30.23,ENE,68,4.0,7.0,78,0.00,,---,0.00,VWS V14.01,2013-01-29 00:00:00,
2013-01-28 19:05:00,55.5,48.8,30.23,NE,38,2.0,8.0,78,0.00,,---,0.00,VWS V14.01,2013-01-29 00:05:00,
2013-01-28 19:10:00,55.4,48.7,30.23,North,354,3.0,5.0,78,0.00,,---,0.00,VWS V14.01,2013-01-29 00:10:00,
2013-01-28 19:15:00,55.1,48.7,30.23,NNE,24,2.0,4.0,79,0.00,,---,0.00,VWS V14.01,2013-01-29 00:15:00,
2013-01-28 19:20:00,54.8,48.4,30.23,NNW,347,0.0,4.0,79,0.00,,---,0.00,VWS V14.01,2013-01-29 00:20:00,
2013-01-28 19:25:00,54.6,48.6,30.23,NNW,330,0.0,5.0,80,0.00,,---,0.00,VWS V14.01,2013-01-29 00:25:00,
2013-01-28 19:30:00,54.3,48.6,30.23,NNE,20,4.0,6.0,81,0.00,,---,0.00,VWS V14.01,2013-01-29 00:30:00,
2013-01-28 19:35:00,54.0,48.3,30.23,NNW,332,3.0,4.0,81,0.00,,---,0.00,VWS V14.01,2013-01-29 00:35:00,
2013-01-28 19:40:00,53.8,47.8,30.23,NNE,12,0.0,3.0,80,0.00,,---,0.00,VWS V14.01,2013-01-29 00:40:00,
2013-01-28 19:45:00,53.7,48.0,30.24,NNE,19,0.0,3.0,81,0.00,,---,0.00,VWS V14.01,2013-01-29 00:45:00,
2013-01-28 19:50:00,53.5,47.8,30.24,NW,322,0.0,2.0,81,0.00,,---,0.00,VWS V14.01,2013-01-29 00:50:00,
2013-01-28 19:55:00,53.4,47.7,30.24,NNW,339,0.0,3.0,81,0.00,,---,0.00,VWS V14.01,2013-01-29 00:55:00,
2013-01-28 20:00:00,53.3,47.6,30.24,NNW,330,0.0,2.0,81,0.00,,---,0.00,VWS V14.01,2013-01-29 01:00:00,
2013-01-28 20:05:00,53.0,47.7,30.24,NNW,330,0.0,1.0,82,0.00,,---,0.00,VWS V14.01,2013-01-29 01:05:00,
2013-01-28 20:10:00,52.8,47.5,30.24,NNE,23,1.0,3.0,82,0.00,,---,0.00,VWS V14.01,2013-01-29 01:10:00,
2013-01-28 20:15:00,52.6,47.3,30.24,NNE,23,1.0,2.0,82,0.00,,---,0.00,VWS V14.01,2013-01-29 01:15:00,
2013-01-28 20:20:00,52.3,47.3,30.24,NE,40,0.0,2.0,83,0.00,,---,0.00,VWS V14.01,2013-01-29 01:20:00,
2013-01-28 20:25:00,52.1,47.1,30.24,NE,34,1.0,2.0,83,0.00,,---,0.00,VWS V14.01,2013-01-29 01:25:00,
2013-01-28 20:30:00,51.8,47.1,30.24,NE,34,0.0,1.0,84,0.00,,---,0.00,VWS V14.01,2013-01-29 01:30:00,
2013-01-28 20:35:00,51.6,46.9,30.24,NNW,334,0.0,1.0,84,0.00,,---,0.00,VWS V14.01,2013-01-29 01:35:00,
2013-01-28 20:40:00,51.4,47.0,30.24,NW,312,0.0,2.0,85,0.00,,---,0.00,VWS V14.01,2013-01-29 01:40:00,
2013-01-28 20:45:00,51.5,47.2,30.24,NW,312,0.0,0.0,85,0.00,,---,0.00,VWS V14.01,2013-01-29 01:45:00,
2013-01-28 20:50:00,51.5,47.2,30.24,NNW,345,1.0,2.0,85,0.00,,---,0.00,VWS V14.01,2013-01-29 01:50:00,
2013-01-28 20:55:00,51.6,46.9,30.24,NNW,338,1.0,6.0,84,0.00,,---,0.00,VWS V14.01,2013-01-29 01:55:00,
2013-01-28 21:00:00,51.8,47.1,30.24,NNW,335,2.0,4.0,84,0.00,,---,0.00,VWS V14.01,2013-01-29 02:00:00,
2013-01-28 21:05:00,51.8,47.1,30.24,North,8,2.0,3.0,84,0.00,,---,0.00,VWS V14.01,2013-01-29 02:05:00,
2013-01-28 21:10:00,51.9,46.9,30.24,ENE,70,1.0,6.0,83,0.00,,---,0.00,VWS V14.01,2013-01-29 02:10:00,
2013-01-28 21:15:00,52.1,47.1,30.24,NNW,344,1.0,8.0,83,0.00,,---,0.00,VWS V14.01,2013-01-29 02:15:00,
2013-01-28 21:20:00,52.2,46.9,30.24,ENE,69,3.0,7.0,82,0.00,,---,0.00,VWS V14.01,2013-01-29 02:20:00,
2013-01-28 21:25:00,52.3,47.0,30.24,ENE,62,3.0,8.0,82,0.00,,---,0.00,VWS V14.01,2013-01-29 02:25:00,
2013-01-28 21:30:00,52.4,47.1,30.24,NNE,19,2.0,9.0,82,0.00,,---,0.00,VWS V14.01,2013-01-29 02:30:00,
2013-01-28 21:35:00,52.4,47.1,30.24,NE,45,1.0,6.0,82,0.00,,---,0.00,VWS V14.01,2013-01-29 02:35:00,
2013-01-28 21:40:00,52.3,47.0,30.24,ENE,65,6.0,7.0,82,0.00,,---,0.00,VWS V14.01,2013-01-29 02:40:00,
2013-01-28 21:45:00,52.4,46.8,30.24,ENE,66,4.0,10.0,81,0.00,,---,0.00,VWS V14.01,2013-01-29 02:45:00,
2013-01-28 21:50:00,52.3,46.7,30.24,NW,325,1.0,11.0,81,0.00,,---,0.00,VWS V14.01,2013-01-29 02:50:00,
2013-01-28 21:55:00,52.2,46.9,30.25,NNW,332,5.0,6.0,82,0.00,,---,0.00,VWS V14.01,2013-01-29 02:55:00,
2013-01-28 22:00:00,52.2,46.9,30.24,North,4,10.0,12.0,82,0.00,,---,0.00,VWS V14.01,2013-01-29 03:00:00,
2013-01-28 22:05:00,52.3,47.0,30.24,East,83,4.0,10.0,82,0.00,,---,0.00,VWS V14.01,2013-01-29 03:05:00,
2013-01-28 22:10:00,52.2,46.9,30.24,North,1,5.0,10.0,82,0.00,,---,0.00,VWS V14.01,2013-01-29 03:10:00,
2013-01-28 22:15:00,52.2,46.9,30.24,NE,41,3.0,10.0,82,0.00,,---,0.00,VWS V14.01,2013-01-29 03:15:00,
2013-01-28 22:20:00,52.1,46.8,30.24,NNW,339,1.0,9.0,82,0.00,,---,0.00,VWS V14.01,2013-01-29 03:20:00,
2013-01-28 22:25:00,52.1,46.8,30.24,ENE,66,3.0,7.0,82,0.00,,---,0.00,VWS V14.01,2013-01-29 03:25:00,
2013-01-28 22:30:00,52.0,46.7,30.24,NNE,33,1.0,6.0,82,0.00,,---,0.00,VWS V14.01,2013-01-29 03:30:00,
2013-01-28 22:35:00,52.0,46.7,30.24,NE,39,4.0,7.0,82,0.00,,---,0.00,VWS V14.01,2013-01-29 03:35:00,
2013-01-28 22:40:00,51.9,46.6,30.24,ENE,70,5.0,8.0,82,0.00,,---,0.00,VWS V14.01,2013-01-29 03:40:00,
2013-01-28 22:45:00,51.8,46.8,30.24,NE,51,1.0,5.0,83,0.00,,---,0.00,VWS V14.01,2013-01-29 03:45:00,
2013-01-28 22:50:00,51.7,46.7,30.24,NE,50,0.0,5.0,83,0.00,,---,0.00,VWS V14.01,2013-01-29 03:50:00,
2013-01-28 22:55:00,51.6,46.6,30.24,NNE,27,1.0,3.0,83,0.00,,---,0.00,VWS V14.01,2013-01-29 03:55:00,
2013-01-28 23:00:00,51.4,46.4,30.24,NE,56,2.0,3.0,83,0.00,,---,0.00,VWS V14.01,2013-01-29 04:00:00,
2013-01-28 23:05:00,51.4,46.7,30.24,ENE,77,0.0,4.0,84,0.00,,---,0.00,VWS V14.01,2013-01-29 04:05:00,
2013-01-28 23:10:00,51.2,46.5,30.24,ENE,66,2.0,3.0,84,0.00,,---,0.00,VWS V14.01,2013-01-29 04:10:00,
2013-01-28 23:15:00,51.2,46.5,30.24,NNW,341,1.0,5.0,84,0.00,,---,0.00,VWS V14.01,2013-01-29 04:15:00,
2013-01-28 23:20:00,51.2,46.5,30.24,NE,37,0.0,3.0,84,0.00,,---,0.00,VWS V14.01,2013-01-29 04:20:00,
2013-01-28 23:25:00,51.1,46.4,30.23,NE,41,3.0,4.0,84,0.00,,---,0.00,VWS V14.01,2013-01-29 04:25:00,
2013-01-28 23:30:00,51.0,46.3,30.23,NE,45,2.0,4.0,84,0.00,,---,0.00,VWS V14.01,2013-01-29 04:30:00,
2013-01-28 23:35:00,51.0,46.7,30.23,NW,322,3.0,6.0,85,0.00,,---,0.00,VWS V14.01,2013-01-29 04:35:00,
2013-01-28 23:40:00,51.0,46.7,30.23,ENE,57,4.0,5.0,85,0.00,,---,0.00,VWS V14.01,2013-01-29 04:40:00,
2013-01-28 23:45:00,51.0,46.7,30.23,ENE,62,1.0,4.0,85,0.00,,---,0.00,VWS V14.01,2013-01-29 04:45:00,
2013-01-28 23:50:00,50.9,46.6,30.23,NE,56,2.0,4.0,85,0.00,,---,0.00,VWS V14.01,2013-01-29 04:50:00,
2013-01-28 23:55:00,50.9,46.6,30.23,NE,50,2.0,3.0,85,0.00,,---,0.00,VWS V14.01,2013-01-29 04:55:00,